This is the latest recevied weather packets stored in our database for station/object VE3EP-1. If no packets are shown the sender has not sent any weather packets the latest 10 day(s).
| Time | Temp. | Humidity | Pressure | Rain* | Wind** | Luminosity | Snow |
|---|---|---|---|---|---|---|---|
| 1778106728 | 6.67° C | 85% | 1012.9 hPa | 0 mm | - | - | - |
| 1778106128 | 6.67° C | 86% | 1012.8 hPa | 0 mm | - | - | - |
| 1778105529 | 6.67° C | 85% | 1012.7 hPa | 0 mm | - | - | - |
| 1778104929 | 7.22° C | 86% | 1012.6 hPa | 0 mm | - | - | - |
| 1778104329 | 6.67° C | 87% | 1012.7 hPa | 0 mm | - | - | - |
| 1778103729 | 7.22° C | 86% | 1012.8 hPa | 0 mm | - | - | - |
| 1778103129 | 7.22° C | 85% | 1012.6 hPa | 0 mm | - | - | - |
| 1778102529 | 7.22° C | 83% | 1012.8 hPa | 0 mm | - | - | - |
| 1778100730 | 7.78° C | 82% | 1012.4 hPa | 0 mm | - | - | - |
| 1778100129 | 7.78° C | 83% | 1012.4 hPa | 0 mm | - | - | - |
| 1778099529 | 7.78° C | 82% | 1012.5 hPa | 0 mm | - | - | - |
| 1778097729 | 8.33° C | 81% | 1012.7 hPa | 0 mm | - | - | - |
| 1778096528 | 8.33° C | 78% | 1012.5 hPa | 0 mm | - | - | - |
| 1778095929 | 8.33° C | 80% | 1012.5 hPa | 0 mm | - | - | - |
| 1778095329 | 8.33° C | 82% | 1012.6 hPa | 0 mm | - | - | - |
| 1778094728 | 7.78° C | 83% | 1012.5 hPa | 0 mm | - | - | - |
| 1778094130 | 8.33° C | 80% | 1012.5 hPa | 0 mm | - | - | - |
| 1778093529 | 8.33° C | 81% | 1012.2 hPa | 0 mm | - | - | - |
| 1778092329 | 8.33° C | 83% | 1012.6 hPa | 0 mm | - | - | - |
| 1778091729 | 8.33° C | 83% | 1012.8 hPa | 0 mm | - | - | - |
| 1778091128 | 7.78° C | 76% | 1012.6 hPa | 0 mm | - | - | - |
| 1778090529 | 7.78° C | 79% | 1012.6 hPa | 0 mm | - | - | - |
| 1778088728 | 7.78° C | 79% | 1012.5 hPa | 0 mm | - | - | - |
| 1778088128 | 7.78° C | 81% | 1012.4 hPa | 0 mm | - | - | - |
| 1778087529 | 7.78° C | 81% | 1012.5 hPa | 0 mm | - | - | - |
* Rain latest hour (hover to see other rain measurements)
** Current wind speed in m/s (hover to see current wind gust speed)